Content
SEND FEEDBACK

Daily
Averages
Monthly
Summary
United States of America

POCAHONTAS, ARKANSAS


Home > North America > United States > Arkansas
Elevation: 315 feet     Latitude: 36 16N     Longitude: 090 58W

WEATHER
 
SELECT A DAY
Number of Records: 456,554;   Date Range: 1/1/95 - 7/29/14
 
SHARE

PRINT THIS DATA

[ ← Previous Day ]
WEATHER ALMANAC - SEPTEMBER 25, 2013
[ Next Day → ]
[ °C ]   °F
Weather ElementAverageHighLow
Temperature70.5 °F80.6 °F (2:35 pm)60.8 °F (6:35 am)
Dewpoint62.7 °F69.8 °F (12:35 am)59 °F (6:35 am)
Humidity78.1 %100 % (2:55 am)51 % (2:35 pm)
Barometer29.82 in29.86 in (9:55 pm)29.78 in (3:15 am)
Wind Speed5.3 mph10.4 mph (4:15 pm)
Weather ElementAverage
Visibility9.6 mi
Wind DirectionSW (222.6 °)

Weather ElementTotal
Precipitation---
Cooling Degree Days5.7 (Base 65)
Growing Degree Days20.7 (Base 50)
Averaged from 61 records on September 25, 2013
WEATHER CONDITIONS BREAKOUT
WIND DIRECTION BREAKOUT
WEATHER BY HOUR - SEPTEMBER 25, 2013
[ °C ]   °F
Local TimeTemperatureDewpointHumidityBarometerVisibilityWind DirectionWind SpeedGust SpeedPrecipitationEventsConditions
12:35 AM71.6 °F69.8 °F94 %29.80 in10.0 miCalmMostly Cloudy
12:55 AM71.6 °F68.0 °F88 %29.80 in10.0 miCalmPartly Cloudy
1:15 AM69.8 °F66.2 °F88 %29.79 in10.0 miNNW (330°)3.5 mphClear
1:35 AM68.0 °F64.4 °F88 %29.80 in10.0 miNW (320°)5.8 mphClear
1:55 AM66.2 °F64.4 °F94 %29.80 in10.0 miNNW (340°)5.8 mphClear
2:15 AM66.2 °F62.6 °F88 %29.79 in10.0 miNNW (330°)6.9 mphClear
2:35 AM66.2 °F64.4 °F94 %29.79 in10.0 miNNW (340°)6.9 mphScattered Clouds
2:55 AM64.4 °F64.4 °F100 %29.79 in4.0 miNorth (10°)5.8 mphOvercast
3:15 AM66.2 °F66.2 °F100 %29.78 in0.5 miNorth (350°)4.6 mphOvercast
3:55 AM64.4 °F62.6 °F94 %29.78 in10.0 miNNW (330°)3.5 mphPartly Cloudy
4:15 AM64.4 °F62.6 °F94 %29.78 in10.0 miNW (310°)4.6 mphPartly Cloudy
4:55 AM62.6 °F62.6 °F100 %29.79 in10.0 miNW (310°)5.8 mphClear
5:15 AM62.6 °F62.6 °F100 %29.79 in9.0 miNW (320°)5.8 mphClear
5:35 AM62.6 °F60.8 °F94 %29.79 in10.0 miNW (310°)5.8 mphClear
5:55 AM62.6 °F60.8 °F94 %29.79 in10.0 miWNW (290°)5.8 mphClear
6:15 AM62.6 °F60.8 °F94 %29.79 in10.0 miWNW (290°)5.8 mphClear
6:35 AM60.8 °F59.0 °F94 %29.80 in10.0 miNW (320°)4.6 mphClear
6:55 AM60.8 °F59.0 °F94 %29.80 in10.0 miWNW (300°)3.5 mphClear
7:16 AM60.8 °F59.0 °F94 %29.80 in10.0 miNW (320°)4.6 mphClear
7:35 AM62.6 °F59.0 °F88 %29.81 in10.0 miWNW (300°)5.8 mphClear
7:55 AM62.6 °F60.8 °F94 %29.80 in10.0 miNW (310°)3.5 mphClear
8:35 AM64.4 °F60.8 °F88 %29.82 in10.0 miNNW (340°)4.6 mphClear
8:55 AM66.2 °F60.8 °F83 %29.82 in10.0 miNNW (330°)4.6 mphClear
9:15 AM66.2 °F62.6 °F88 %29.83 in10.0 miNNW (330°)4.6 mphClear
9:35 AM69.8 °F62.6 °F78 %29.84 in10.0 miNNW (340°)6.9 mphClear
9:55 AM69.8 °F62.6 °F78 %29.84 in10.0 miNNW (340°)8.1 mphClear
10:15 AM71.6 °F62.6 °F73 %29.84 in10.0 miNNW (340°)4.6 mphClear
10:55 AM73.4 °F62.6 °F69 %29.84 in10.0 miNNW (330°)8.1 mphClear
11:15 AM73.4 °F62.6 °F69 %29.84 in10.0 miNorth (350°)5.8 mphPartly Cloudy
11:35 AM75.2 °F62.6 °F65 %29.84 in10.0 miNNW (340°)5.8 mphClear
11:55 AM77.0 °F62.6 °F61 %29.84 in10.0 miNorth (350°)9.2 mphPartly Cloudy
12:35 PM75.2 °F62.6 °F65 %29.84 in10.0 miWNW (300°)5.8 mphMostly Cloudy
12:55 PM75.2 °F60.8 °F61 %29.84 in10.0 miNNE (30°)6.9 mphScattered Clouds
1:15 PM77.0 °F62.6 °F61 %29.83 in10.0 miNorth (360°)8.1 mphMostly Cloudy
1:35 PM78.8 °F62.6 °F57 %29.83 in10.0 miNorth (350°)5.8 mphMostly Cloudy
1:55 PM77.0 °F60.8 °F57 %29.82 in10.0 miNorth (10°)4.6 mphMostly Cloudy
2:15 PM78.8 °F62.6 °F57 %29.82 in10.0 miNNW (340°)9.2 mphScattered Clouds
2:35 PM80.6 °F60.8 °F51 %29.82 in10.0 miNorth (360°)6.9 mphMostly Cloudy
2:55 PM80.6 °F64.4 °F58 %29.81 in10.0 miNE (40°)9.2 mphScattered Clouds
3:15 PM78.8 °F62.6 °F57 %29.82 in10.0 miNorth (360°)6.9 mphScattered Clouds
3:35 PM80.6 °F60.8 °F51 %29.81 in10.0 miWNW (290°)6.9 mphPartly Cloudy
3:55 PM80.6 °F62.6 °F54 %29.82 in10.0 miNorth (10°)8.1 mphMostly Cloudy
4:15 PM78.8 °F62.6 °F57 %29.81 in10.0 miNorth (10°)10.4 mphPartly Cloudy
4:35 PM80.6 °F62.6 °F54 %29.82 in10.0 miNNW (340°)8.1 mphClear
5:15 PM78.8 °F64.4 °F61 %29.82 in10.0 miNNE (30°)8.1 mphMostly Cloudy
5:35 PM78.8 °F62.6 °F57 %29.82 in10.0 miNNE (30°)5.8 mphClear
5:55 PM78.8 °F64.4 °F61 %29.82 in10.0 miNE (50°)5.8 mphClear
6:35 PM77.0 °F62.6 °F61 %29.83 in10.0 miCalmClear
6:55 PM75.2 °F62.6 °F65 %29.83 in10.0 miNorth (10°)3.5 mphClear
7:15 PM73.4 °F62.6 °F69 %29.83 in10.0 miNNE (30°)4.6 mphClear
7:35 PM71.6 °F62.6 °F73 %29.83 in10.0 miNE (40°)6.9 mphClear
7:55 PM71.6 °F64.4 °F78 %29.84 in10.0 miNNE (30°)4.6 mphClear
8:55 PM69.8 °F64.4 °F83 %29.85 in6.0 miCalmClear
9:15 PM69.8 °F62.6 °F78 %29.85 in8.0 miNE (50°)3.5 mphClear
9:35 PM68.0 °F64.4 °F88 %29.85 in10.0 miNNE (30°)3.5 mphClear
9:55 PM66.2 °F62.6 °F88 %29.86 in10.0 miCalmClear
10:15 PM68.0 °F62.6 °F83 %29.86 in10.0 miNNW (340°)4.6 mphClear
10:35 PM66.2 °F62.6 °F88 %29.86 in10.0 miNNW (340°)3.5 mphClear
10:55 PM66.2 °F64.4 °F94 %29.86 in10.0 miNNW (330°)3.5 mphClear
11:15 PM66.2 °F62.6 °F88 %29.86 in10.0 miNNW (340°)4.6 mphClear
11:55 PM66.2 °F62.6 °F88 %29.86 in10.0 miNorth (10°)4.6 mphClear
Hourly data recorded from KARG, located miles away from Pocahontas, Arkansas







STORIES FROM OUR PARTNERS